Tracking 29892 objects as of 21-Nov-2024
HD Live streaming from Space Station
objects crossing your sky now

COSMOS 252 DEB

Track COSMOS 252 DEB now!
10-day predictions


NORAD ID: 3549
Int'l Code: 1968-097B
Perigee: 492.9 km
Apogee: 961.2 km
Inclination: 62.3 °
Period: 99.2 minutes
Semi major axis: 7098 km
RCS: 0.0386 m2 (small)
Launch date: November 1, 1968
Source: Commonwealth of Independent States (former USSR) (CIS)
Launch site: TYURATAM MISSILE AND SPACE COMPLEX (TTMTR)

Note: This is SATELLITE DEBRIS
Your satellite tracking list
Your tracking list is empty




NASA's NSSDC Master Catalog

Two Line Element Set (TLE):
1 03549U 68097B   24325.76715952  .00011473  00000-0  14058-2 0  9995
2 03549  62.3005 261.5369 0329923 176.7094 183.6260 14.51759915786298
Source of the keplerian elements: AFSPC